Powrót do katalogu

ASTRA 1H

AktywnyŁącznośćGEO
NORAD 25785·PAYLOAD·🇱🇺 Luxembourg

Wystrzelony Jun 18, 1999 z Baikonur Cosmodrome

Loading…

TLE

ŚwieżeSource: Space-Track

Epoka: Sep 14, 2026, 21:03 UTC

1 25785U 99033A   26257.87762721 -.00000012  00000-0  00000-0 0  9997
2 25785  10.8239  47.5039 0011775 156.2011 193.7385  0.98941085 51979

Śledź ASTRA 1H w czasie rzeczywistym z AllMySat

Download on the App Store